This is the latest recevied weather packets stored in our database for station/object KA7KDX-4. If no packets are shown the sender has not sent any weather packets the latest 10 day(s).
| Time | Temp. | Humidity | Pressure | Rain* | Wind** | Luminosity | Snow |
|---|---|---|---|---|---|---|---|
| 1777513205 | 13.33° C | 36% | 1014.5 hPa | 0 mm | - | - | - |
| 1777512905 | 13.33° C | 36% | 1014.4 hPa | 0 mm | - | - | - |
| 1777512605 | 13.33° C | 35% | 1014.4 hPa | 0 mm | - | - | - |
| 1777512305 | 13.33° C | 36% | 1014.4 hPa | 0 mm | - | - | - |
| 1777512006 | 13.89° C | 36% | 1014.4 hPa | 0 mm | - | - | - |
| 1777511706 | 13.89° C | 35% | 1014.4 hPa | 0 mm | - | - | - |
| 1777511406 | 13.89° C | 37% | 1014.3 hPa | 0 mm | - | - | - |
| 1777511106 | 13.89° C | 38% | 1014.2 hPa | 0 mm | - | - | - |
| 1777510805 | 13.89° C | 37% | 1014.2 hPa | 0 mm | - | - | - |
| 1777510505 | 13.89° C | 37% | 1014.1 hPa | 0 mm | - | - | - |
| 1777510205 | 13.89° C | 38% | 1014.1 hPa | 0 mm | - | - | - |
| 1777509905 | 14.44° C | 39% | 1014 hPa | 0 mm | - | - | - |
| 1777509606 | 14.44° C | 40% | 1013.9 hPa | 0 mm | - | - | - |
| 1777509306 | 14.44° C | 38% | 1013.8 hPa | 0 mm | - | - | - |
| 1777509006 | 14.44° C | 36% | 1013.7 hPa | 0 mm | - | - | - |
| 1777508706 | 14.44° C | 36% | 1013.7 hPa | 0 mm | - | - | - |
| 1777508406 | 15° C | 33% | 1013.7 hPa | 0 mm | - | - | - |
| 1777508105 | 14.44° C | 33% | 1013.8 hPa | 0 mm | - | - | - |
| 1777507805 | 14.44° C | 33% | 1013.9 hPa | 0 mm | - | - | - |
| 1777507505 | 14.44° C | 33% | 1014 hPa | 0 mm | - | - | - |
| 1777507205 | 14.44° C | 33% | 1013.9 hPa | 0 mm | - | - | - |
| 1777506905 | 14.44° C | 32% | 1013.7 hPa | 0 mm | - | - | - |
| 1777506606 | 15° C | 32% | 1013.6 hPa | 0 mm | - | - | - |
| 1777506306 | 15.56° C | 31% | 1013.4 hPa | 0 mm | - | - | - |
| 1777506006 | 15.56° C | 31% | 1013.2 hPa | 0 mm | - | - | - |
* Rain latest hour (hover to see other rain measurements)
** Current wind speed in m/s (hover to see current wind gust speed)